Data supplied by UK-AIR on 9/1/2017
All Data GMT hour ending 
Status: R =Ratified P=Provisional,P*=As supplied
,,Liverpool Queen's Drive Roadside,,,,,,,,,,,,,,,,,,,,,,,
Date,time,"Nitric oxide",status,unit,"Nitrogen dioxide",status,unit,"Nitrogen oxides as nitrogen dioxide",status,unit
 
01-01-2017,01:00,1.99568,P,ugm-3,12.62250,P,ugm-3,15.68250,P,ugm-3
01-01-2017,02:00,4.98920,P,ugm-3,14.53500,P,ugm-3,22.18500,P,ugm-3
01-01-2017,03:00,4.36555,P,ugm-3,11.85750,P,ugm-3,18.55125,P,ugm-3
01-01-2017,04:00,2.24514,P,ugm-3,5.92875,P,ugm-3,9.37125,P,ugm-3
01-01-2017,05:00,1.87095,P,ugm-3,4.78125,P,ugm-3,7.65000,P,ugm-3
01-01-2017,06:00,1.24730,P,ugm-3,4.20750,P,ugm-3,6.12000,P,ugm-3
01-01-2017,07:00,0.62365,P,ugm-3,4.20750,P,ugm-3,5.16375,P,ugm-3
01-01-2017,08:00,0.24946,P,ugm-3,2.67750,P,ugm-3,3.06000,P,ugm-3
01-01-2017,09:00,0.37419,P,ugm-3,3.06000,P,ugm-3,3.63375,P,ugm-3
01-01-2017,10:00,0.49892,P,ugm-3,5.54625,P,ugm-3,6.31125,P,ugm-3
01-01-2017,11:00,0.87311,P,ugm-3,6.50250,P,ugm-3,7.84125,P,ugm-3
01-01-2017,12:00,1.24730,P,ugm-3,4.97250,P,ugm-3,6.88500,P,ugm-3
01-01-2017,13:00,1.74622,P,ugm-3,7.07625,P,ugm-3,9.75375,P,ugm-3
01-01-2017,14:00,3.61717,P,ugm-3,9.94500,P,ugm-3,15.49125,P,ugm-3
01-01-2017,15:00,2.36987,P,ugm-3,8.79750,P,ugm-3,12.43125,P,ugm-3
01-01-2017,16:00,1.99568,P,ugm-3,10.51875,P,ugm-3,13.57875,P,ugm-3
01-01-2017,17:00,1.62149,P,ugm-3,13.19625,P,ugm-3,15.68250,P,ugm-3
01-01-2017,18:00,1.37203,P,ugm-3,17.97750,P,ugm-3,20.08125,P,ugm-3
01-01-2017,19:00,1.12257,P,ugm-3,13.57875,P,ugm-3,15.30000,P,ugm-3
01-01-2017,20:00,1.24730,P,ugm-3,15.30000,P,ugm-3,17.21250,P,ugm-3
01-01-2017,21:00,1.12257,P,ugm-3,13.96125,P,ugm-3,15.68250,P,ugm-3
01-01-2017,22:00,0.87311,P,ugm-3,11.66625,P,ugm-3,13.00500,P,ugm-3
01-01-2017,23:00,0.99784,P,ugm-3,11.28375,P,ugm-3,12.81375,P,ugm-3
01-01-2017,24:00,2.74406,P,ugm-3,14.72625,P,ugm-3,18.93375,P,ugm-3
02-01-2017,01:00,6.86015,P,ugm-3,22.56750,P,ugm-3,33.08625,P,ugm-3
02-01-2017,02:00,2.61933,P,ugm-3,16.44750,P,ugm-3,20.46375,P,ugm-3
02-01-2017,03:00,2.99352,P,ugm-3,13.00500,P,ugm-3,17.59500,P,ugm-3
02-01-2017,04:00,0.37419,P,ugm-3,4.39875,P,ugm-3,4.97250,P,ugm-3
02-01-2017,05:00,0.62365,P,ugm-3,4.97250,P,ugm-3,5.92875,P,ugm-3
02-01-2017,06:00,2.99352,P,ugm-3,10.13625,P,ugm-3,14.72625,P,ugm-3
02-01-2017,07:00,16.58909,P,ugm-3,29.07000,P,ugm-3,54.50625,P,ugm-3
02-01-2017,08:00,8.85583,P,ugm-3,20.65500,P,ugm-3,34.23375,P,ugm-3
02-01-2017,09:00,2.74406,P,ugm-3,17.59500,P,ugm-3,21.80250,P,ugm-3
02-01-2017,10:00,7.73326,P,ugm-3,24.86250,P,ugm-3,36.72000,P,ugm-3
02-01-2017,11:00,49.39308,P,ugm-3,58.33125,P,ugm-3,134.06625,P,ugm-3
02-01-2017,12:00,40.16306,P,ugm-3,47.43000,P,ugm-3,109.01250,P,ugm-3
02-01-2017,13:00,35.17386,P,ugm-3,46.28250,P,ugm-3,100.21500,P,ugm-3
02-01-2017,14:00,32.55453,P,ugm-3,39.39750,P,ugm-3,89.31375,P,ugm-3
02-01-2017,15:00,26.69222,P,ugm-3,34.42500,P,ugm-3,75.35250,P,ugm-3
02-01-2017,16:00,24.44708,P,ugm-3,42.26625,P,ugm-3,79.75125,P,ugm-3
02-01-2017,17:00,30.18466,P,ugm-3,49.72500,P,ugm-3,96.00750,P,ugm-3
02-01-2017,18:00,52.38660,P,ugm-3,61.20000,P,ugm-3,141.52500,P,ugm-3
02-01-2017,19:00,41.53509,P,ugm-3,56.80125,P,ugm-3,120.48750,P,ugm-3
02-01-2017,20:00,50.64038,P,ugm-3,69.23250,P,ugm-3,146.88000,P,ugm-3
02-01-2017,21:00,71.22083,P,ugm-3,86.06250,P,ugm-3,195.26625,P,ugm-3
02-01-2017,22:00,51.38876,P,ugm-3,77.83875,P,ugm-3,156.63375,P,ugm-3
02-01-2017,23:00,32.55453,P,ugm-3,63.11250,P,ugm-3,113.02875,P,ugm-3
02-01-2017,24:00,6.61069,P,ugm-3,32.51250,P,ugm-3,42.64875,P,ugm-3
03-01-2017,01:00,6.11177,P,ugm-3,28.30500,P,ugm-3,37.67625,P,ugm-3
03-01-2017,02:00,2.12041,P,ugm-3,9.56250,P,ugm-3,12.81375,P,ugm-3
03-01-2017,03:00,1.24730,P,ugm-3,5.73750,P,ugm-3,7.65000,P,ugm-3
03-01-2017,04:00,1.74622,P,ugm-3,8.41500,P,ugm-3,11.09250,P,ugm-3
03-01-2017,05:00,2.99352,P,ugm-3,13.77000,P,ugm-3,18.36000,P,ugm-3
03-01-2017,06:00,6.61069,P,ugm-3,21.03750,P,ugm-3,31.17375,P,ugm-3
03-01-2017,07:00,26.06857,P,ugm-3,39.20625,P,ugm-3,79.17750,P,ugm-3
03-01-2017,08:00,29.93520,P,ugm-3,46.47375,P,ugm-3,92.37375,P,ugm-3
03-01-2017,09:00,35.04913,P,ugm-3,52.59375,P,ugm-3,106.33500,P,ugm-3
03-01-2017,10:00,35.42332,P,ugm-3,44.94375,P,ugm-3,99.25875,P,ugm-3
03-01-2017,11:00,30.43412,P,ugm-3,43.22250,P,ugm-3,89.88750,P,ugm-3
03-01-2017,12:00,28.68790,P,ugm-3,37.48500,P,ugm-3,81.47250,P,ugm-3
03-01-2017,13:00,26.06857,P,ugm-3,39.01500,P,ugm-3,78.98625,P,ugm-3
03-01-2017,14:00,25.44492,P,ugm-3,36.33750,P,ugm-3,75.35250,P,ugm-3
03-01-2017,15:00,31.93088,P,ugm-3,43.60500,P,ugm-3,92.56500,P,ugm-3
03-01-2017,16:00,26.44276,P,ugm-3,37.10250,P,ugm-3,77.64750,P,ugm-3
03-01-2017,17:00,25.81911,P,ugm-3,37.86750,P,ugm-3,77.45625,P,ugm-3
03-01-2017,18:00,27.56533,P,ugm-3,41.11875,P,ugm-3,83.38500,P,ugm-3
03-01-2017,19:00,19.95680,P,ugm-3,39.58875,P,ugm-3,70.18875,P,ugm-3
03-01-2017,20:00,17.08801,P,ugm-3,30.60000,P,ugm-3,56.80125,P,ugm-3
03-01-2017,21:00,9.10529,P,ugm-3,21.03750,P,ugm-3,34.99875,P,ugm-3
03-01-2017,22:00,9.23002,P,ugm-3,20.84625,P,ugm-3,34.99875,P,ugm-3
03-01-2017,23:00,5.61285,P,ugm-3,18.16875,P,ugm-3,26.77500,P,ugm-3
03-01-2017,24:00,4.11609,P,ugm-3,14.72625,P,ugm-3,21.03750,P,ugm-3
04-01-2017,01:00,2.86879,P,ugm-3,8.98875,P,ugm-3,13.38750,P,ugm-3
04-01-2017,02:00,1.74622,P,ugm-3,9.37125,P,ugm-3,12.04875,P,ugm-3
04-01-2017,03:00,1.24730,P,ugm-3,6.31125,P,ugm-3,8.22375,P,ugm-3
04-01-2017,04:00,1.37203,P,ugm-3,7.07625,P,ugm-3,9.18000,P,ugm-3
04-01-2017,05:00,1.49676,P,ugm-3,10.51875,P,ugm-3,12.81375,P,ugm-3
04-01-2017,06:00,5.86231,P,ugm-3,16.83000,P,ugm-3,25.81875,P,ugm-3
04-01-2017,07:00,20.20626,P,ugm-3,37.86750,P,ugm-3,68.85000,P,ugm-3
04-01-2017,08:00,36.17170,P,ugm-3,36.33750,P,ugm-3,91.80000,P,ugm-3
04-01-2017,09:00,29.93520,P,ugm-3,42.45750,P,ugm-3,88.35750,P,ugm-3
04-01-2017,10:00,41.78455,P,ugm-3,53.55000,P,ugm-3,117.61875,P,ugm-3
04-01-2017,11:00,24.44708,P,ugm-3,34.42500,P,ugm-3,71.91000,P,ugm-3
04-01-2017,12:00,12.59773,P,ugm-3,29.07000,P,ugm-3,48.38625,P,ugm-3
04-01-2017,13:00,6.73542,P,ugm-3,20.84625,P,ugm-3,31.17375,P,ugm-3
04-01-2017,14:00,3.86663,P,ugm-3,14.15250,P,ugm-3,20.08125,P,ugm-3
04-01-2017,15:00,4.36555,P,ugm-3,20.84625,P,ugm-3,27.54000,P,ugm-3
04-01-2017,16:00,6.23650,P,ugm-3,30.02625,P,ugm-3,39.58875,P,ugm-3
04-01-2017,17:00,11.97408,P,ugm-3,54.50625,P,ugm-3,72.86625,P,ugm-3
04-01-2017,18:00,20.33099,P,ugm-3,66.55500,P,ugm-3,97.72875,P,ugm-3
04-01-2017,19:00,127.97298,P,ugm-3,102.12750,P,ugm-3,298.35000,P,ugm-3
04-01-2017,20:00,167.88658,P,ugm-3,108.82125,P,ugm-3,366.24375,P,ugm-3
04-01-2017,21:00,220.89683,P,ugm-3,120.29625,P,ugm-3,459.00000,P,ugm-3
04-01-2017,22:00,198.94435,P,ugm-3,109.01250,P,ugm-3,414.05625,P,ugm-3
04-01-2017,23:00,206.67761,P,ugm-3,104.99625,P,ugm-3,421.89750,P,ugm-3
04-01-2017,24:00,88.43357,P,ugm-3,77.45625,P,ugm-3,213.05250,P,ugm-3
05-01-2017,01:00,75.33692,P,ugm-3,74.01375,P,ugm-3,189.52875,P,ugm-3
05-01-2017,02:00,69.72407,P,ugm-3,70.57125,P,ugm-3,177.48000,P,ugm-3
05-01-2017,03:00,43.15658,P,ugm-3,64.64250,P,ugm-3,130.81500,P,ugm-3
05-01-2017,04:00,60.49405,P,ugm-3,69.04125,P,ugm-3,161.79750,P,ugm-3
05-01-2017,05:00,64.23595,P,ugm-3,68.08500,P,ugm-3,166.57875,P,ugm-3
05-01-2017,06:00,95.16899,P,ugm-3,73.82250,P,ugm-3,219.74625,P,ugm-3
05-01-2017,07:00,100.90657,P,ugm-3,71.14500,P,ugm-3,225.86625,P,ugm-3
05-01-2017,08:00,229.75266,P,ugm-3,89.69625,P,ugm-3,441.97875,P,ugm-3
05-01-2017,09:00,327.54098,P,ugm-3,125.84250,P,ugm-3,628.06500,P,ugm-3
05-01-2017,10:00,290.74563,P,ugm-3,114.94125,P,ugm-3,560.74500,P,ugm-3
05-01-2017,11:00,234.86659,P,ugm-3,107.29125,P,ugm-3,467.41500,P,ugm-3
05-01-2017,12:00,170.50591,P,ugm-3,95.05125,P,ugm-3,356.49000,P,ugm-3
05-01-2017,13:00,79.82720,P,ugm-3,70.57125,P,ugm-3,192.97125,P,ugm-3
05-01-2017,14:00,61.24243,P,ugm-3,62.92125,P,ugm-3,156.82500,P,ugm-3
05-01-2017,15:00,53.88336,P,ugm-3,58.71375,P,ugm-3,141.33375,P,ugm-3
05-01-2017,16:00,73.96489,P,ugm-3,74.58750,P,ugm-3,187.99875,P,ugm-3
05-01-2017,17:00,88.30884,P,ugm-3,82.42875,P,ugm-3,217.83375,P,ugm-3
05-01-2017,18:00,97.16467,P,ugm-3,83.95875,P,ugm-3,232.94250,P,ugm-3
05-01-2017,19:00,63.73703,P,ugm-3,71.14500,P,ugm-3,168.87375,P,ugm-3
05-01-2017,20:00,30.18466,P,ugm-3,60.43500,P,ugm-3,106.71750,P,ugm-3
05-01-2017,21:00,18.08585,P,ugm-3,45.90000,P,ugm-3,73.63125,P,ugm-3
05-01-2017,22:00,13.09665,P,ugm-3,40.16250,P,ugm-3,60.24375,P,ugm-3
05-01-2017,23:00,8.60637,P,ugm-3,32.51250,P,ugm-3,45.70875,P,ugm-3
05-01-2017,24:00,5.61285,P,ugm-3,26.96625,P,ugm-3,35.57250,P,ugm-3
06-01-2017,01:00,3.74190,P,ugm-3,24.28875,P,ugm-3,30.02625,P,ugm-3
06-01-2017,02:00,2.24514,P,ugm-3,18.55125,P,ugm-3,21.99375,P,ugm-3
06-01-2017,03:00,1.87095,P,ugm-3,15.87375,P,ugm-3,18.74250,P,ugm-3
06-01-2017,04:00,1.49676,P,ugm-3,14.91750,P,ugm-3,17.21250,P,ugm-3
06-01-2017,05:00,3.36771,P,ugm-3,16.83000,P,ugm-3,21.99375,P,ugm-3
06-01-2017,06:00,7.48380,P,ugm-3,24.67125,P,ugm-3,36.14625,P,ugm-3
06-01-2017,07:00,28.06425,P,ugm-3,35.95500,P,ugm-3,78.98625,P,ugm-3
06-01-2017,08:00,47.52213,P,ugm-3,52.40250,P,ugm-3,125.26875,P,ugm-3
06-01-2017,09:00,51.88768,P,ugm-3,52.59375,P,ugm-3,132.15375,P,ugm-3
06-01-2017,10:00,46.77375,P,ugm-3,47.62125,P,ugm-3,119.34000,P,ugm-3
06-01-2017,11:00,47.02321,P,ugm-3,46.47375,P,ugm-3,118.57500,P,ugm-3
06-01-2017,12:00,,,,,,,,,
06-01-2017,13:00,,,,,,,,,
06-01-2017,14:00,,,,,,,,,
06-01-2017,15:00,,,,,,,,,
06-01-2017,16:00,,,,,,,,,
06-01-2017,17:00,,,,,,,,,
06-01-2017,18:00,,,,,,,,,
06-01-2017,19:00,,,,,,,,,
06-01-2017,20:00,,,,,,,,,
06-01-2017,21:00,,,,,,,,,
06-01-2017,22:00,,,,,,,,,
06-01-2017,23:00,,,,,,,,,
06-01-2017,24:00,,,,,,,,,
07-01-2017,01:00,,,,,,,,,
07-01-2017,02:00,,,,,,,,,
07-01-2017,03:00,,,,,,,,,
07-01-2017,04:00,,,,,,,,,
07-01-2017,05:00,,,,,,,,,
07-01-2017,06:00,,,,,,,,,
07-01-2017,07:00,,,,,,,,,
07-01-2017,08:00,,,,,,,,,
07-01-2017,09:00,,,,,,,,,
07-01-2017,10:00,,,,,,,,,
07-01-2017,11:00,,,,,,,,,
07-01-2017,12:00,,,,,,,,,
07-01-2017,13:00,,,,,,,,,
07-01-2017,14:00,,,,,,,,,
07-01-2017,15:00,,,,,,,,,
07-01-2017,16:00,,,,,,,,,
07-01-2017,17:00,,,,,,,,,
07-01-2017,18:00,,,,,,,,,
07-01-2017,19:00,,,,,,,,,
07-01-2017,20:00,,,,,,,,,
07-01-2017,21:00,,,,,,,,,
07-01-2017,22:00,,,,,,,,,
07-01-2017,23:00,,,,,,,,,
07-01-2017,24:00,,,,,,,,,
08-01-2017,01:00,,,,,,,,,
08-01-2017,02:00,,,,,,,,,
08-01-2017,03:00,,,,,,,,,
08-01-2017,04:00,,,,,,,,,
08-01-2017,05:00,,,,,,,,,
08-01-2017,06:00,,,,,,,,,
08-01-2017,07:00,,,,,,,,,
08-01-2017,08:00,,,,,,,,,
08-01-2017,09:00,,,,,,,,,
08-01-2017,10:00,,,,,,,,,
08-01-2017,11:00,,,,,,,,,
08-01-2017,12:00,,,,,,,,,
08-01-2017,13:00,,,,,,,,,
08-01-2017,14:00,,,,,,,,,
08-01-2017,15:00,,,,,,,,,
08-01-2017,16:00,,,,,,,,,
08-01-2017,17:00,,,,,,,,,
08-01-2017,18:00,,,,,,,,,
08-01-2017,19:00,,,,,,,,,
08-01-2017,20:00,,,,,,,,,
08-01-2017,21:00,,,,,,,,,
08-01-2017,22:00,,,,,,,,,
08-01-2017,23:00,,,,,,,,,
08-01-2017,24:00,,,,,,,,,
